Location: Clinton NY
(43.0598°N, 75.3602°W)
Time: 01:15:16
(UTC-04:00)

Iridium 11 - Visible Passes

Search period start: 25 July 2014 00:00
Search period end: 04 August 2014 00:00
Orbit: 776 x 779 km, 86.4° (Epoch: 24 July)

Date Brightness Start Highest point End Pass type
(mag) Time Alt. Az. Time Alt. Az. Time Alt. Az.
25 Jul 6.7 02:51:10 22° SE 02:53:52 38° E 02:58:39 10° NNE visible
25 Jul 6.7 04:31:40 16° WSW 04:34:40 26° WNW 04:39:00 10° NNW visible
26 Jul 7.5 02:18:00 15° ESE 02:20:35 22° E 02:24:28 10° NNE visible
26 Jul 5.9 03:58:29 27° SW 04:00:57 46° W 04:05:57 10° N visible
27 Jul 8.0 01:45:36 10° E 01:47:26 12° ENE 01:49:15 10° NE visible
27 Jul 5.4 03:25:18 38° S 03:27:21 83° W 03:32:35 10° N visible
28 Jul 6.0 02:52:06 37° SE 02:53:52 55° E 02:58:57 10° NNE visible
28 Jul 7.1 04:32:35 14° WSW 04:34:58 18° WNW 04:38:33 10° NNW visible
29 Jul 6.9 02:18:53 25° ESE 02:20:31 30° E 02:25:01 10° NNE visible
29 Jul 6.4 03:59:22 26° WSW 04:01:09 32° W 04:05:49 10° NNW visible
30 Jul 7.6 01:45:40 15° E 01:47:17 17° ENE 01:50:35 10° NE visible
30 Jul 5.6 03:26:09 44° SW 03:27:29 58° W 03:32:38 10° N visible
31 Jul 5.5 02:52:55 58° SSE 02:53:56 79° E 02:59:09 10° N visible
31 Jul 7.5 04:33:24 11° W 04:35:18 13° WNW 04:37:38 10° NW visible
01 Aug 6.3 02:19:40 40° ESE 02:20:30 43° E 02:25:25 10° NNE visible
01 Aug 6.8 04:00:09 21° W 04:01:25 23° WNW 04:05:31 10° NNW visible
02 Aug 7.1 01:46:25 23° E 01:47:12 24° E 01:51:19 10° NNE visible
02 Aug 6.1 03:26:54 38° WSW 03:27:39 40° W 03:32:34 10° NNW visible
03 Aug 7.8 01:13:10 13° E 01:14:01 14° ENE 01:16:29 10° NE visible
03 Aug 5.4 02:53:38 70° WSW 02:54:02 74° W 02:59:15 10° N visible
